Regional Weather Roundup
Issued by NWS

Home | Current Version | Previous Version | Graphics & Text | Print | Product List | Glossary On
Versions: 1 2 3 4 5 6 7 8 9 10 11 12 13 14 15 16 17 18 19 20 21 22 23 24 25 26 27 28 29 30 31 32 33 34 35 36 37 38 39 40 41 42 43 44 45 46 47 48 49 50
426
ASUS45 KPSR 190710
RWRAZ

ARIZONA HOURLY REGIONAL WEATHER ROUNDUP
NATIONAL WEATHER SERVICE PHOENIX AZ
1200 AM MST THU JAN 19 2017

NOTE: FAIR INDICATES FEW OR NO CLOUDS BELOW 12,000 FEET WITH NO
SIGNIFICANT WEATHER AND/OR OBSTRUCTIONS TO VISIBILITY.

AZZ001>003-036-190800-
NORTHWEST ARIZONA

CITY           SKY/WX    TMP DP  RH WIND       PRES   REMARKS
BULLHEAD CITY  CLOUDY    54  32  43 CALM      29.99F
KINGMAN        CLOUDY    47  24  40 S10       30.01F
$$

AZZ004>008-015-016-018-190800-
NORTH CENTRAL ARIZONA

CITY           SKY/WX    TMP DP  RH WIND       PRES   REMARKS
GRAND CANYON   CLEAR     23  21  92 SW5       30.03F WCI  17
WILLIAMS       CLEAR     32  30  93 SW14G24   30.03F WCI  22
PRESCOTT       PTCLDY    36  33  89 CALM      30.05F
FLAGSTAFF      CLOUDY    32  29  88 SW9       30.03F WCI  24
PAYSON         PTCLDY    36  34  93 CALM      30.09F
PAGE           CLEAR     35  27  72 CALM      29.94F
$$

AZZ009>014-017-190800-
NORTHEAST ARIZONA

CITY           SKY/WX    TMP DP  RH WIND       PRES   REMARKS
WINSLOW        CLEAR     38  33  82 S12       30.00F WCI  30
SAINT JOHNS    CLEAR     36  30  79 SW14      30.01F WCI  27
SHOW LOW       PTCLDY    32  28  86 S12       30.06F WCI  23
$$

AZZ023-190800-
GREATER PHOENIX AREA

CITY           SKY/WX    TMP DP  RH WIND       PRES   REMARKS
PHOENIX        PTCLDY    52  42  69 CALM      30.03R
BUCKEYE          N/A     46  46 100 N5        30.04F
LUKE AFB       MOCLDY    49  42  78 CALM      30.03F
DEER VALLEY    PTCLDY    48  41  76 CALM      30.03S
SCOTTSDALE     PTCLDY    48  41  76 W3        30.05R
MESA-GATEWAY   CLEAR     45  41  87 S6        30.05F
$$

AZZ027-028-190800-
SOUTHWEST MARICOPA COUNTY AND PINAL COUNTY

CITY           SKY/WX    TMP DP  RH WIND       PRES   REMARKS
CASA GRANDE    PTCLDY    47  39  74 CALM      30.06S
$$

AZZ503-504-507>509-190800-
SOUTHEAST ARIZONA

CITY           SKY/WX    TMP DP  RH WIND       PRES   REMARKS
TUCSON         CLEAR     46  40  79 SE6       30.09F
DAVIS-MONTHAN  PTCLDY    44  40  87 S7        30.07F
NOGALES        CLEAR     40  33  76 E5        30.10F
SIERRA VISTA   CLEAR     40  33  75 W9        30.10F WCI  34
DOUGLAS        CLEAR     36  33  89 CALM      30.09S
SAFFORD        CLEAR     38  35  89 E3        30.04F
$$

AZZ020-021-025-026-031-190800-
SOUTHWEST ARIZONA

CITY           SKY/WX    TMP DP  RH WIND       PRES   REMARKS
YUMA           CLOUDY    53  37  54 S5        30.06F
$$

CAZ031-033-041-043-047-048-061-190800-
SOUTHERN CALIFORNIA

CITY           SKY/WX    TMP DP  RH WIND       PRES   REMARKS
DOWNTOWN L.A.  NOT AVBL
L.A. AIRPORT   CLOUDY    54  50  86 SE10      30.04F
SAN DIEGO      LGT RAIN  57  50  77 SE12      30.09F
BURBANK        CLOUDY    51  46  83 SE10      30.02F
ONTARIO        CLOUDY    51  47  86 E6        30.06F
RIVERSIDE      CLOUDY    51  48  89 E3        30.07F
PALM SPRINGS   CLOUDY    57  38  48 CALM      30.04F
EL CENTRO NAS  LGT RAIN  56  48  74 W10       30.08S
IMPERIAL       LGT RAIN  56  48  74 W13       30.06S
BLYTHE         CLOUDY    56  34  43 S12       30.01F
NEEDLES        CLOUDY    55  32  41 N3        29.99F
$$

NVZ020-UTZ003-190800-
SOUTHERN NEVADA-UTAH

CITY           SKY/WX    TMP DP  RH WIND       PRES   REMARKS
LAS VEGAS      CLOUDY    51  33  50 SW10      29.93S
SALT LAKE CITY CLOUDY    26  22  84 CALM      29.85F
$$

NMZ009-TXZ055-190800-
NEW MEXICO-WEST TEXAS

CITY           SKY/WX    TMP DP  RH WIND       PRES   REMARKS
ALBUQUERQUE    PTCLDY    38  29  70 N5        29.96F WCI  34
EL PASO        MOCLDY    52  32  46 W10       30.00F
$$


........................KEY........................
SKY/WX - SKY CONDITION/WEATHER
TMP    - TEMPERATURE IN FAHRENHEIT
DP     - DEW POINT IN FAHRENHEIT
RH     - RELATIVE HUMIDITY IN PERCENT
WIND   - DIRECTION AND SPEED IN MILES PER HOUR (MPH)
VRB    - VARIABLE WIND DIRECTION
PRES   - MEAN SEA LEVEL PRESSURE IN INCHES OF MERCURY
         F - FALLING PRESSURE   R - RISING PRESSURE
         S - STEADY PRESSURE
VSB    - VISIBILITY IN MILES
HX     - HEAT INDEX IN FAHRENHEIT
WCI    - WIND CHILL INDEX IN FAHRENHEIT
TC     - TEMPERATURE IN CELSIUS WHICH IS ALSO KNOWN AS
         TEMPERATURE IN CENTIGRADE
AFB    - AIR FORCE BASE
         LUKE AFB IS LUKE AIR FORCE BASE
         DAVIS-MONTHAN IS DAVIS-MONTHAN AIR FORCE BASE
NAS    - NAVAL AIR STATION
         EL CENTRO NAS IS EL CENTRO NAVAL AIR STATION
N/A    - NOT AVAILABLE





USA.gov is the U.S. government's official web portal to all federal, state and local government web resources and services.